Location: ASU Dark Sky Observatory
(36.2504°N, 81.4125°W)
Time: 04:01:30
(UTC-05:00)

Daily predictions for brighter satellites

Satellite Brightness Start Highest point End
(mag) Time Altitude Azimuth Time Altitude Azimuth Time Altitude Azimuth
ATLAS 5 CENTAUR R/B 4.1 04:04:33 19° NNE 04:04:33 19° NNE 04:06:01 10° NNE
Cosmos 1943 Rocket 3.5 04:10:09 34° NE 04:10:09 34° NE 04:13:20 10° NNE
Lacrosse 5 3.5 04:19:12 29° NE 04:19:12 29° NE 04:21:39 10° NE
CZ-4B R/B 4.3 04:13:20 10° NNE 04:16:48 39° NNE 04:16:48 39° NNE
USA 234 3.1 04:19:32 10° NE 04:26:03 85° ESE 04:26:03 85° ESE
Cosmos 1452 Rocket 4.1 04:36:34 48° SE 04:37:24 54° ESE 04:42:33 10° NNE
ADEOS II 3.1 04:37:41 10° N 04:40:44 35° N 04:40:44 35° N
Meteor 1-26 Rocket 4.4 04:46:22 17° S 04:50:52 70° E 04:56:27 10° NNE
Cosmos 407 Rocket 3.4 04:54:00 52° NNW 04:55:23 89° WSW 05:00:42 10° SSE
Tiangong 1 3.7 05:00:17 17° NE 05:00:17 17° NE 05:01:08 10° NE
Okean-O 2.7 04:54:36 10° NNE 04:59:02 73° ESE 04:59:51 56° SSE
Cosmos 676 Rocket 4.3 04:55:01 10° NNW 05:00:20 69° ENE 05:05:38 10° SSE
Cosmos 1244 Rocket 4.4 04:59:19 10° N 05:05:35 84° E 05:11:44 10° S
Meteor 1-31 Rocket 3.2 05:03:40 10° NNE 05:06:42 52° NNE 05:06:42 52° NNE
CZ-4C R/B 1.9 05:06:47 53° SW 05:08:06 85° WNW 05:13:55 10° NNE
Cosmos 2219 4.5 05:03:09 10° N 05:08:28 39° ENE 05:13:42 10° SE
Cosmos 2369 Rocket 4.0 05:10:54 17° NNW 05:10:54 17° NNW 05:12:52 10° N
Cosmos 1656 Rocket 3.6 05:09:36 32° SSW 05:12:22 83° WNW 05:18:05 10° NNE
Cosmos 1140 Rocket 4.2 05:08:28 10° N 05:13:36 54° ENE 05:18:43 10° SSE
Okean 2 Rocket 3.7 05:12:23 10° N 05:16:42 55° E 05:21:00 10° SSE
Cosmos 1703 Rocket 3.7 05:22:54 49° WNW 05:22:54 49° WNW 05:26:44 10° N
Cosmos 1190 Rocket 4.5 05:23:52 38° WSW 05:23:52 38° WSW 05:28:07 10° S
GEOS 3 Rocket 3.7 05:19:48 10° SSE 05:24:44 51° WSW 05:26:26 36° WNW
SJ-6F 4.3 05:21:15 10° N 05:25:25 85° WNW 05:29:31 10° SSW
S3M 4.0 05:22:28 10° S 05:28:50 89° W 05:35:10 10° N
Feng Yun 1-1 Rocket 4.3 05:23:17 10° N 05:29:05 64° WNW 05:34:56 10° SSW
Delta 2 Rocket 4.0 05:28:52 35° SW 05:30:46 62° SSE 05:36:02 10° E
Cosmos 1833 4.4 05:31:27 14° NW 05:35:55 46° WSW 05:41:14 10° S
Cosmos 1553 Rocket 3.9 05:29:57 10° SSW 05:36:06 75° W 05:42:24 10° N
ATLAS CENTAUR R/B 4.4 05:37:26 23° WNW 05:41:59 45° SW 06:00:32 10° SSE
Meteor 2-10 Rocket 3.9 05:40:23 23° SW 05:42:47 36° WNW 05:47:26 10° N
ATLAS 5 CENTAUR R/B 3.7 05:46:07 14° NW 05:46:25 14° NW 05:49:04 10° N
COSMO-SKYMED 1 2.5 05:44:36 10° SSE 05:48:56 88° WSW 05:53:18 10° NNW
Cosmos 1954 Rocket 4.2 05:44:42 10° NNW 05:49:50 50° WSW 05:54:57 10° S
Cosmos 1943 Rocket 3.6 05:51:42 17° WNW 05:52:04 17° NW 05:55:40 10° NNW
Radarsat Rocket 4.2 05:45:25 10° NNE 05:52:35 77° WNW 05:58:51 10° SSW
Ariane Rocket 3.5 05:48:57 10° NNE 05:54:00 63° E 05:59:01 10° S
Cosmos 1420 Rocket 4.2 05:49:05 10° SW 05:54:02 46° WNW 05:59:02 10° N
Cosmos 2221 Rocket 4.4 05:52:10 15° SW 05:55:09 29° WNW 05:59:09 10° NNW
Lacrosse 5 rocket 3.8 05:55:20 10° N 05:57:06 13° NE 05:58:52 10° ENE
IDEFIX/ARIANE 42P 4.4 05:52:42 10° NNE 05:57:26 34° E 06:02:07 10° SSE
NOAA 6 4.2 05:52:37 10° N 05:57:34 48° WNW 06:02:28 10° SW
Meteor 1-28 Rocket 3.1 05:54:52 10° SSE 05:58:35 86° ENE 06:02:19 10° N
Lacrosse 5 3.6 05:58:26 14° NW 06:00:15 17° NNW 06:03:30 10° N
Meteor 1-20 Rocket 4.2 05:59:54 10° NNW 06:05:31 62° W 06:11:00 10° S
USA 238 DEB 4.2 06:01:12 10° SSW 06:08:05 65° ESE 06:15:02 10° NE
USA 238 4.3 06:01:17 10° SSW 06:08:11 64° ESE 06:15:07 10° NE
USA 234 4.2 06:03:07 10° NNE 06:08:35 30° NNW 06:13:26 13° W
Cosmos 1709 Rocket 4.5 06:04:15 10° N 06:10:20 65° E 06:16:25 10° SSE
Thor Agena Rocket 4.3 06:06:20 10° SSW 06:10:50 29° W 06:15:18 10° NW
DMSP B5D1-3 4.4 06:06:00 10° S 06:11:04 72° WSW 06:16:10 10° NNW
Okean 1-7 4.2 06:08:04 10° SW 06:11:21 21° WNW 06:14:39 10° NNW
Cosmos 1331 Rocket 4.5 06:08:50 10° S 06:13:55 65° ESE 06:19:05 10° NNE
Cosmos 1782 3.3 06:10:35 10° SSW 06:14:14 36° W 06:17:57 10° N
CSL-04 Rocket 3.8 06:09:14 10° NNE 06:14:38 85° ESE 06:20:06 10° SSW
DELTA 2 R/B (2) 3.8 06:15:55 12° WSW 06:18:01 49° SSE 06:19:49 10° E
Cosmos 2315 Rocket 4.2 06:14:15 10° S 06:20:38 87° E 06:27:01 10° N
Cosmos 1606 3.2 06:18:43 10° SSW 06:22:19 38° W 06:25:58 10° N
Cosmos 1602 4.1 06:19:08 10° N 06:23:05 73° E 06:27:01 10° SSE
Cosmos 2369 4.0 06:19:57 10° SSW 06:25:34 77° ESE 06:31:14 10° NNE
Cosmos 1110 Rocket 3.9 06:21:43 10° SSW 06:26:52 82° WNW 06:32:04 10° NNE
Cosmos 1745 Rocket 4.4 06:23:02 10° NNW 06:28:37 38° W 06:34:10 10° SSW
ATLAS 3B R/B 3.0 06:26:13 10° SW 06:33:41 58° NW 06:40:55 10° NNE
Cosmos 1741 Rocket 4.4 06:28:58 10° NNW 06:33:54 42° WSW 06:38:50 10° S
Meteor 2-6 Rocket 4.5 06:28:57 10° SSW 06:34:02 42° WNW 06:39:09 10° N
